Regional Weather Roundup
Issued by NWS

Home | Current Version | Previous Version | Graphics & Text | Print | Product List | Glossary Off
Versions: 1 2 3 4 5 6 7 8 9 10 11 12 13 14 15 16 17 18 19 20 21 22 23 24 25 26 27 28 29 30 31 32 33 34 35 36 37 38 39 40 41 42 43 44 45 46 47 48 49 50

561
ASUS43 KMKX 281011
RWRWI

WISCONSIN REGIONAL WEATHER ROUNDUP
NATIONAL WEATHER SERVICE MILWAUKEE/SULLIVAN WI
500 AM CDT WED SEP 28 2016

NOTE: "FAIR" INDICATES FEW OR NO CLOUDS BELOW 12,000 FEET WITH NO
SIGNIFICANT WEATHER AND/OR OBSTRUCTIONS TO VISIBILITY.

WIZ001-002-006>008-014>016-023>028-281100-
NORTHWEST WISCONSIN

CITY           SKY/WX    TMP DP  RH WIND       PRES   REMARKS
SUPERIOR ARPT  CLOUDY    54  49  83 N8        30.00R
ASHLAND        CLOUDY    53  50  89 NE16      29.96R
HAYWARD        CLOUDY    52  49  89 N12       29.94R
SIREN          MOCLDY    49  48  93 N6        29.98R
CUMBERLAND     CLOUDY    48  46  93 N12       29.95R
RICE LAKE      CLOUDY    51  47  88 NW10      29.95R
CHETEK         NOT AVBL
LADYSMITH      CLOUDY    52  50  93 N12       29.91R
EAU CLAIRE     CLOUDY    51  48  89 NW9       29.91R
MENOMONIE      CLOUDY    50  50 100 NW8       29.93R
NEW RICHMOND   CLOUDY    49  48  95 N9        29.97R
OSCEOLA        CLOUDY    49  49 100 NW8       30.01R
$$

WIZ003>005-009-010-017-018-281100-
NORTH CENTRAL WISCONSIN

CITY           SKY/WX    TMP DP  RH WIND       PRES   REMARKS
MANITOWISH WTR NOT AVBL
ARBOR VITAE    CLOUDY    52  51  95 N8        29.87R
WOODRUFF       CLOUDY    52  51  95 N8        29.87R
RHINELANDER    MOCLDY    50  50 100 N5        29.86R
EAGLE RIVER    CLOUDY    50  50 100 N5        29.86R
LAND O LAKES   CLOUDY    51  51  97 N7        29.88R FOG
PHILLIPS       MOCLDY    50  50 100 N3        29.87R
TOMAHAWK       MOCLDY    47  46  96 NW3       29.87R
MEDFORD        MOCLDY   N/A N/A N/A N7        29.86R
MERRILL        CLOUDY    49  49 100 CALM      29.86R
$$

WIZ029-030-035-036-043>047-281100-
CENTRAL WISCONSIN

CITY           SKY/WX    TMP DP  RH WIND       PRES   REMARKS
WAUSAU         CLOUDY    50  48  93 N7        29.83R
MOSINEE        CLOUDY    48  48 100 N7        29.86R
MARSHFIELD     CLOUDY    51  47  86 N9        29.85R
STEVENS POINT  CLOUDY    48  48 100 NW6       29.85R
WAUPACA        CLOUDY    52  51  95 NW3       29.83R
WAUTOMA        CLOUDY    49  48  97 NW5       29.84
WISC RAPIDS    CLOUDY    50  49  96 NW3       29.86R
CAMP DOUGLAS   CLOUDY    48  48 100 NW8       29.86R
$$

WIZ011>013-019>022-031-037>040-048>050-281100-
NORTHEAST WISCONSIN

CITY           SKY/WX    TMP DP  RH WIND       PRES   REMARKS
ANTIGO         CLOUDY    49  48  99 CALM      29.84R
SHAWANO        CLOUDY    52  49  90 CALM      29.83R
OCONTO         NOT AVBL
STURGEON BAY   PTCLDY    50  48  93 N6        29.81R
GREEN BAY      CLOUDY    50  50 100 NW5       29.81R
MANITOWOC      PTCLDY    48  46  93 NW5       29.81R
APPLETON       CLOUDY    48  48 100 NW5       29.81R
CLINTONVILLE   NOT AVBL
OSHKOSH        CLOUDY    50  48  93 NW7       29.81R
$$

WIZ032>034-041-042-053>061-281100-
SOUTHWEST WISCONSIN

CITY           SKY/WX    TMP DP  RH WIND       PRES   REMARKS
LA CROSSE      CLOUDY    53  49  86 NW13      29.89R
SPARTA         CLOUDY    49  48  99 NW6       29.88R
VIROQUA        CLOUDY    48  48 100 NW10      29.88R
BOSCOBEL       CLOUDY    52  47  83 NW5       29.88R
PRAIRIE DU CHI CLOUDY    51  44  79 NW9       29.89R
PLATTEVILLE    CLOUDY    49  48  96 NW12      29.86R
$$

WIZ056-057-062-063-064-067-068-281100-
SOUTH CENTRAL WISCONSIN

CITY           SKY/WX    TMP DP  RH WIND       PRES   REMARKS
REEDSBURG      NOT AVBL
BARABOO/DELLS  CLOUDY    48  46  93 NW7       29.84R
LONE ROCK      CLOUDY    50  47  89 W6        29.86R
MINERAL POINT  CLOUDY    50  46  87 NW6       29.85R
MADISON        CLOUDY    49  47  93 N6        29.83R
MIDDLETON      CLOUDY    50  50 100 NW7       29.84R
WATERTOWN      CLOUDY    49  49 100 NW5       29.81S FOG
MONROE         CLOUDY    46  46 100 NW8       29.83R
JANESVILLE     CLOUDY    50  48  93 NW5       29.81S
$$

WIZ051-052-058>065-066-070>072-281100-
SOUTHEAST WISCONSIN

CITY           SKY/WX    TMP DP  RH WIND       PRES   REMARKS
MILWAUKEE      LGT RAIN  51  48  89 NW7       29.80R
WAUKESHA       CLOUDY    46  46 100 NW6       29.81S
MILWAUKEE/TIMM RAIN      48  45  87 NW5       29.81R
RACINE         CLOUDY    50  47  89 NW7       29.81R
BURLINGTON     CLOUDY    47  46  97 NW7       29.81R
KENOSHA        CLOUDY    49  47  93 NW5       29.80R
FOND DU LAC    CLOUDY    50  48  93 NW9       29.81R
SHEBOYGAN      CLOUDY    50  47  89 NW5       29.80R
WEST BEND      LGT RAIN  48  46  93 CALM      29.81R
JUNEAU         CLOUDY    48  47  96 NW5       29.82S
$$

LSZ147-162-281100-
LAKE SUPERIOR

STATION/POSITION TIME  TEMP    WIND        PRES    WAVE
                       AIR SEA DIR/SP/G            HT/PER
                 (UTC) (F)     (DEG/KT/KT) (MB)    (FT/S)
W MID LAKE BUOY  0950   56 53   20/ 21/ 29 1013.7R   6/ 6
DEVILS ISLAND    1000   53      20/ 16/ 19 1015.2R
SAXON HARBOR     0929   56      20/ 21/ 25 1013.2R
$$

LMZ867-665-643>646-281100-
LAKE MICHIGAN

STATION/POSITION TIME  TEMP    WIND        PRES    WAVE
                       AIR SEA DIR/SP/G            HT/PER
                 (UTC) (F)     (DEG/KT/KT) (MB)    (FT/S)
CHAMBERS ISLAND  0900   54     340/  8/ 10 1008.8R
S GREEN BAY BUOY 0800   54 62  330/ 10/ 12 1008.1
N MID LAKE BUOY  0950   57 66  140/ 12/ 16 1009.1R   2/ 6
NORTHPORT PIER   0900   55      30/  6/  9 1009.1R
SISTER BAY       0908   53      CALM  /  3   N/A
KEWAUNEE LAKESHO 0900   50     310/  3/  4 1008.2R
SHEBOYGAN LAKESH 1000   50     330/  6/  7 1009.1R
PORT WASHINGTON  0900   51     260/  4/  5 1009.8
ATWATER BUOY     1000   51 54  270/  6/  6 1009.5R
MILWAUKEE LAKESH 0910   51     280/  6/  8   N/A
S MID LAKE BUOY  0950   55 69  280/  6/  8 1008.8R   1/ 4
KENOSHA   LAKESH 1000   50     310/  6/  7 1009.1R
$$

TC  - TEMPERATURE IN CELSIUS
VSB - VISIBILITY IN STATUTE MILES
WCI - WIND CHILL INDEX
HX  - HEAT INDEX





USA.gov is the U.S. government's official web portal to all federal, state and local government web resources and services.